Time,TemperatureF,DewpointF,PressureIn,WindDirection,WindDirectionDegrees,WindSpeedMPH,WindSpeedGustMPH,Humidity,HourlyPrecipIn,Conditions,Clouds,dailyrainin,SoftwareType,DateUTC
2013-03-06 00:12:00,59.0,56.0,-100.00,SW,229,14.0,-999.0,90,0.02,,,-99.99,,2013-03-06 05:12:00,
2013-03-06 00:22:00,59.0,56.0,-100.00,SW,229,14.0,-999.0,90,0.02,,,-99.99,,2013-03-06 05:22:00,
2013-03-06 00:32:00,59.0,56.0,-100.00,SW,229,14.0,-999.0,90,0.02,,,-99.99,,2013-03-06 05:32:00,
2013-03-06 00:42:00,59.0,56.0,-100.00,SW,229,14.0,-999.0,90,0.02,,,-99.99,,2013-03-06 05:42:00,
2013-03-06 01:22:00,59.0,56.0,-100.00,WSW,242,12.0,-999.0,89,0.00,,,-99.99,,2013-03-06 06:22:00,
2013-03-06 01:32:00,59.0,56.0,-100.00,WSW,242,12.0,-999.0,89,0.00,,,-99.99,,2013-03-06 06:32:00,
2013-03-06 01:42:00,59.0,56.0,-100.00,WSW,242,12.0,-999.0,89,0.00,,,-99.99,,2013-03-06 06:42:00,
2013-03-06 02:22:00,58.0,54.0,-100.00,WSW,249,14.0,-999.0,85,0.00,,,-99.99,,2013-03-06 07:22:00,
2013-03-06 02:32:00,58.0,54.0,-100.00,WSW,249,14.0,-999.0,85,0.00,,,-99.99,,2013-03-06 07:32:00,
2013-03-06 02:42:00,58.0,54.0,-100.00,WSW,249,14.0,-999.0,85,0.00,,,-99.99,,2013-03-06 07:42:00,
2013-03-06 03:21:00,55.0,44.0,-100.00,WNW,283,17.0,-999.0,66,0.00,,,-99.99,,2013-03-06 08:21:00,
2013-03-06 03:32:00,55.0,44.0,-100.00,WNW,283,17.0,-999.0,66,0.00,,,-99.99,,2013-03-06 08:32:00,
2013-03-06 03:42:00,55.0,44.0,-100.00,WNW,283,17.0,-999.0,66,0.00,,,-99.99,,2013-03-06 08:42:00,
2013-03-06 04:22:00,50.0,37.0,-100.00,West,271,15.0,-999.0,61,0.00,,,-99.99,,2013-03-06 09:22:00,
2013-03-06 04:32:00,50.0,37.0,-100.00,West,271,15.0,-999.0,61,0.00,,,-99.99,,2013-03-06 09:32:00,
2013-03-06 04:42:00,50.0,37.0,-100.00,West,271,15.0,-999.0,61,0.00,,,-99.99,,2013-03-06 09:42:00,
2013-03-06 05:22:00,46.0,33.0,-100.00,West,275,20.0,-999.0,60,0.00,,,-99.99,,2013-03-06 10:22:00,
2013-03-06 05:32:00,46.0,33.0,-100.00,West,275,20.0,-999.0,60,0.00,,,-99.99,,2013-03-06 10:32:00,
2013-03-06 05:42:00,46.0,33.0,-100.00,West,275,20.0,-999.0,60,0.00,,,-99.99,,2013-03-06 10:42:00,
2013-03-06 06:23:00,43.0,30.0,-100.00,West,277,16.0,-999.0,58,0.00,,,-99.99,,2013-03-06 11:23:00,
2013-03-06 06:32:00,43.0,30.0,-100.00,West,277,16.0,-999.0,58,0.00,,,-99.99,,2013-03-06 11:32:00,
2013-03-06 06:42:00,43.0,30.0,-100.00,West,277,16.0,-999.0,58,0.00,,,-99.99,,2013-03-06 11:42:00,
2013-03-06 07:22:00,42.0,27.0,-100.00,West,280,15.0,-999.0,55,0.00,,,-99.99,,2013-03-06 12:22:00,
2013-03-06 07:33:00,42.0,27.0,-100.00,West,280,15.0,-999.0,55,0.00,,,-99.99,,2013-03-06 12:33:00,
2013-03-06 07:42:00,42.0,27.0,-100.00,West,280,15.0,-999.0,55,0.00,,,-99.99,,2013-03-06 12:42:00,
2013-03-06 08:22:00,43.0,27.0,-100.00,West,280,15.0,-999.0,54,0.00,,,-99.99,,2013-03-06 13:22:00,
2013-03-06 08:32:00,43.0,27.0,-100.00,West,280,15.0,-999.0,54,0.00,,,-99.99,,2013-03-06 13:32:00,
2013-03-06 08:42:00,43.0,27.0,-100.00,West,280,15.0,-999.0,54,0.00,,,-99.99,,2013-03-06 13:42:00,
2013-03-06 09:22:00,44.0,26.0,-100.00,WNW,286,16.0,-999.0,48,0.00,,,-99.99,,2013-03-06 14:22:00,
2013-03-06 09:32:00,44.0,26.0,-100.00,WNW,286,16.0,-999.0,48,0.00,,,-99.99,,2013-03-06 14:32:00,
2013-03-06 09:42:00,44.0,26.0,-100.00,WNW,286,16.0,-999.0,48,0.00,,,-99.99,,2013-03-06 14:42:00,
2013-03-06 10:22:00,45.0,23.0,-100.00,WNW,286,19.0,-999.0,42,0.00,,,-99.99,,2013-03-06 15:22:00,
2013-03-06 10:32:00,45.0,23.0,-100.00,WNW,286,19.0,-999.0,42,0.00,,,-99.99,,2013-03-06 15:32:00,
2013-03-06 10:42:00,45.0,23.0,-100.00,WNW,286,19.0,-999.0,42,0.00,,,-99.99,,2013-03-06 15:42:00,
2013-03-06 11:21:00,46.0,24.0,-100.00,WNW,294,17.0,-999.0,42,0.00,,,-99.99,,2013-03-06 16:21:00,
2013-03-06 11:32:00,46.0,24.0,-100.00,WNW,294,17.0,-999.0,42,0.00,,,-99.99,,2013-03-06 16:32:00,
2013-03-06 11:42:00,46.0,24.0,-100.00,WNW,294,17.0,-999.0,42,0.00,,,-99.99,,2013-03-06 16:42:00,
2013-03-06 12:22:00,47.0,22.0,-100.00,WNW,299,17.0,-999.0,38,0.00,,,-99.99,,2013-03-06 17:22:00,
2013-03-06 12:32:00,47.0,22.0,-100.00,WNW,299,17.0,-999.0,38,0.00,,,-99.99,,2013-03-06 17:32:00,
2013-03-06 12:42:00,47.0,22.0,-100.00,WNW,299,17.0,-999.0,38,0.00,,,-99.99,,2013-03-06 17:42:00,
2013-03-06 13:29:00,48.0,21.0,-100.00,WNW,289,20.0,-999.0,35,0.00,,,-99.99,,2013-03-06 18:29:00,
2013-03-06 13:42:00,48.0,21.0,-100.00,WNW,289,20.0,-999.0,35,0.00,,,-99.99,,2013-03-06 18:42:00,
2013-03-06 14:22:00,48.0,22.0,-100.00,WNW,301,21.0,-999.0,35,0.00,,,-99.99,,2013-03-06 19:22:00,
2013-03-06 14:32:00,48.0,22.0,-100.00,WNW,301,21.0,-999.0,35,0.00,,,-99.99,,2013-03-06 19:32:00,
2013-03-06 14:43:00,48.0,22.0,-100.00,WNW,301,21.0,-999.0,35,0.00,,,-99.99,,2013-03-06 19:43:00,
2013-03-06 15:22:00,50.0,22.0,-100.00,NW,313,18.0,-999.0,34,0.00,,,-99.99,,2013-03-06 20:22:00,
2013-03-06 15:33:00,50.0,22.0,-100.00,NW,313,18.0,-999.0,34,0.00,,,-99.99,,2013-03-06 20:33:00,
2013-03-06 15:42:00,50.0,22.0,-100.00,NW,313,18.0,-999.0,34,0.00,,,-99.99,,2013-03-06 20:42:00,
2013-03-06 16:22:00,51.0,23.0,-100.00,WNW,292,18.0,-999.0,33,0.00,,,-99.99,,2013-03-06 21:22:00,
2013-03-06 16:32:00,51.0,23.0,-100.00,WNW,292,18.0,-999.0,33,0.00,,,-99.99,,2013-03-06 21:32:00,
2013-03-06 16:42:00,51.0,23.0,-100.00,WNW,292,18.0,-999.0,33,0.00,,,-99.99,,2013-03-06 21:42:00,
2013-03-06 17:22:00,52.0,23.0,-100.00,NW,307,17.0,-999.0,33,0.00,,,-99.99,,2013-03-06 22:22:00,
2013-03-06 17:32:00,52.0,23.0,-100.00,NW,307,17.0,-999.0,33,0.00,,,-99.99,,2013-03-06 22:32:00,
2013-03-06 17:42:00,52.0,23.0,-100.00,NW,307,17.0,-999.0,33,0.00,,,-99.99,,2013-03-06 22:42:00,
2013-03-06 18:22:00,52.0,24.0,-100.00,NW,321,15.0,-999.0,34,0.00,,,-99.99,,2013-03-06 23:22:00,
2013-03-06 18:32:00,52.0,24.0,-100.00,NW,321,15.0,-999.0,34,0.00,,,-99.99,,2013-03-06 23:32:00,
2013-03-06 18:42:00,52.0,24.0,-100.00,NW,321,15.0,-999.0,34,0.00,,,-99.99,,2013-03-06 23:42:00,
2013-03-06 19:22:00,51.0,26.0,-100.00,NW,311,12.0,-999.0,38,0.00,,,-99.99,,2013-03-07 00:22:00,
2013-03-06 19:32:00,51.0,26.0,-100.00,NW,311,12.0,-999.0,38,0.00,,,-99.99,,2013-03-07 00:32:00,
2013-03-06 19:42:00,51.0,26.0,-100.00,NW,311,12.0,-999.0,38,0.00,,,-99.99,,2013-03-07 00:42:00,
2013-03-06 20:22:00,49.0,27.0,-100.00,NW,323,9.0,-999.0,42,0.00,,,-99.99,,2013-03-07 01:22:00,
2013-03-06 20:32:00,49.0,27.0,-100.00,NW,323,9.0,-999.0,42,0.00,,,-99.99,,2013-03-07 01:32:00,
2013-03-06 20:42:00,49.0,27.0,-100.00,NW,323,9.0,-999.0,42,0.00,,,-99.99,,2013-03-07 01:42:00,
2013-03-06 21:22:00,48.0,27.0,-100.00,NW,326,11.0,-999.0,44,0.00,,,-99.99,,2013-03-07 02:22:00,
2013-03-06 21:32:00,48.0,27.0,-100.00,NW,326,11.0,-999.0,44,0.00,,,-99.99,,2013-03-07 02:32:00,
2013-03-06 21:42:00,48.0,27.0,-100.00,NW,326,11.0,-999.0,44,0.00,,,-99.99,,2013-03-07 02:42:00,
2013-03-06 22:22:00,46.0,28.0,-100.00,NW,314,7.0,-999.0,48,0.00,,,-99.99,,2013-03-07 03:22:00,
2013-03-06 22:32:00,46.0,28.0,-100.00,NW,314,7.0,-999.0,48,0.00,,,-99.99,,2013-03-07 03:32:00,
2013-03-06 22:42:00,46.0,28.0,-100.00,NW,314,7.0,-999.0,48,0.00,,,-99.99,,2013-03-07 03:42:00,
2013-03-06 23:22:00,44.0,28.0,-100.00,NW,318,6.0,-999.0,53,0.00,,,-99.99,,2013-03-07 04:22:00,
2013-03-06 23:32:00,44.0,28.0,-100.00,NW,318,6.0,-999.0,53,0.00,,,-99.99,,2013-03-07 04:32:00,
2013-03-06 23:42:00,44.0,28.0,-100.00,NW,318,6.0,-999.0,53,0.00,,,-99.99,,2013-03-07 04:42:00,